Saint Bonnet de Bellac- Haute Vienne - France
Donnes mto: mercredi, 16/05/2012
Date Horaire Temp. E. Hum. E. P.atmo. Pluie Vent Direction Direction Ensoleilleme Solaire P. de rose Temp au vent Rafales
16/05/2012 00:00 4,9 C 67 % 1022,8 hPa 0,0 mm 1,8 km/h (1 Bft) N-NO 337 0 min 0 W/m -0,7 C 4,9 C 4,3 km/h (1 Bft)
16/05/2012 00:10 4,8 C 67 % 1022,8 hPa 0,0 mm 2,2 km/h (1 Bft) NO 315 0 min 0 W/m -0,8 C 4,8 C 3,2 km/h (1 Bft)
16/05/2012 00:20 4,8 C 68 % 1022,9 hPa 0,0 mm 0,4 km/h (0 Bft) NO 315 0 min 0 W/m -0,6 C 4,8 C 2,9 km/h (1 Bft)
16/05/2012 00:30 4,6 C 68 % 1022,9 hPa 0,0 mm 0,7 km/h (0 Bft) N-NO 337 0 min 0 W/m -0,8 C 4,6 C 2,9 km/h (1 Bft)
16/05/2012 00:40 4,6 C 68 % 1022,9 hPa 0,0 mm 2,9 km/h (1 Bft) NO 315 0 min 0 W/m -0,8 C 4,6 C 7,9 km/h (2 Bft)
16/05/2012 00:50 4,5 C 69 % 1022,9 hPa 0,0 mm 0,7 km/h (0 Bft) O 270 0 min 0 W/m -0,7 C 4,5 C 4,3 km/h (1 Bft)
16/05/2012 01:00 4,4 C 69 % 1023,0 hPa 0,0 mm 0,7 km/h (0 Bft) N-NO 337 0 min 0 W/m -0,8 C 4,4 C 3,2 km/h (1 Bft)
16/05/2012 01:10 4,3 C 69 % 1022,9 hPa 0,0 mm 0,0 km/h (0 Bft) N-NO 337 0 min 0 W/m -0,9 C 4,3 C 0,0 km/h (0 Bft)
16/05/2012 01:20 4,1 C 69 % 1023,0 hPa 0,0 mm 0,0 km/h (0 Bft) NO 315 0 min 0 W/m -1,1 C 4,1 C 0,0 km/h (0 Bft)
16/05/2012 01:30 4,0 C 69 % 1023,1 hPa 0,0 mm 0,0 km/h (0 Bft) NO 315 0 min 0 W/m -1,2 C 4,0 C 0,0 km/h (0 Bft)
16/05/2012 01:40 3,8 C 70 % 1023,2 hPa 0,0 mm 1,1 km/h (1 Bft) NO 315 0 min 0 W/m -1,2 C 3,8 C 1,1 km/h (1 Bft)
16/05/2012 01:50 3,8 C 71 % 1023,3 hPa 0,0 mm 0,4 km/h (0 Bft) N-NO 337 0 min 0 W/m -1,0 C 3,8 C 3,2 km/h (1 Bft)
16/05/2012 02:00 3,8 C 71 % 1023,3 hPa 0,0 mm 0,0 km/h (0 Bft) NO 315 0 min 0 W/m -1,0 C 3,8 C 0,0 km/h (0 Bft)
16/05/2012 02:10 3,6 C 71 % 1023,3 hPa 0,0 mm 0,0 km/h (0 Bft) N-NO 337 0 min 0 W/m -1,2 C 3,6 C 0,0 km/h (0 Bft)
16/05/2012 02:20 3,4 C 71 % 1023,4 hPa 0,0 mm 0,0 km/h (0 Bft) N-NO 337 0 min 0 W/m -1,3 C 3,4 C 0,0 km/h (0 Bft)
16/05/2012 02:30 3,1 C 72 % 1023,3 hPa 0,0 mm 0,0 km/h (0 Bft) N-NO 337 0 min 0 W/m -1,4 C 3,1 C 0,0 km/h (0 Bft)
16/05/2012 02:40 2,9 C 72 % 1023,3 hPa 0,0 mm 0,0 km/h (0 Bft) N-NO 337 0 min 0 W/m -1,6 C 2,9 C 0,0 km/h (0 Bft)
16/05/2012 02:50 2,6 C 73 % 1023,3 hPa 0,0 mm 0,0 km/h (0 Bft) N-NO 337 0 min 0 W/m -1,7 C 2,6 C 0,0 km/h (0 Bft)
16/05/2012 03:02 2,4 C 74 % 1023,3 hPa 0,0 mm 0,0 km/h (0 Bft) N-NO 337 0 min 0 W/m -1,7 C 2,4 C 0,0 km/h (0 Bft)
16/05/2012 03:10 2,1 C 74 % 1023,3 hPa 0,0 mm 0,0 km/h (0 Bft) N-NO 337 0 min 0 W/m -2,0 C 2,1 C 0,0 km/h (0 Bft)
16/05/2012 03:20 1,9 C 74 % 1023,3 hPa 0,0 mm 0,0 km/h (0 Bft) N-NO 337 0 min 0 W/m -2,2 C 1,9 C 0,0 km/h (0 Bft)
16/05/2012 03:30 1,8 C 75 % 1023,4 hPa 0,0 mm 0,0 km/h (0 Bft) N-NO 337 0 min 0 W/m -2,1 C 1,8 C 0,0 km/h (0 Bft)
16/05/2012 03:40 1,6 C 76 % 1023,5 hPa 0,0 mm 0,0 km/h (0 Bft) N-NO 337 0 min 0 W/m -2,2 C 1,6 C 0,0 km/h (0 Bft)
16/05/2012 03:50 1,4 C 76 % 1023,5 hPa 0,0 mm 0,0 km/h (0 Bft) N-NO 337 0 min 0 W/m -2,4 C 1,4 C 0,0 km/h (0 Bft)
16/05/2012 04:00 1,3 C 76 % 1023,5 hPa 0,0 mm 0,0 km/h (0 Bft) N-NO 337 0 min 0 W/m -2,5 C 1,3 C 0,0 km/h (0 Bft)
16/05/2012 04:10 1,2 C 77 % 1023,5 hPa 0,0 mm 0,0 km/h (0 Bft) N-NO 337 0 min 0 W/m -2,4 C 1,2 C 0,0 km/h (0 Bft)
16/05/2012 04:20 1,1 C 78 % 1023,6 hPa 0,0 mm 0,0 km/h (0 Bft) S-SO 202 0 min 0 W/m -2,3 C 1,1 C 0,0 km/h (0 Bft)
16/05/2012 04:30 1,1 C 79 % 1023,6 hPa 0,0 mm 0,0 km/h (0 Bft) S-SO 202 0 min 0 W/m -2,1 C 1,1 C 0,0 km/h (0 Bft)
16/05/2012 04:40 0,9 C 79 % 1023,6 hPa 0,0 mm 0,0 km/h (0 Bft) O 270 0 min 0 W/m -2,3 C 0,9 C 0,0 km/h (0 Bft)
16/05/2012 04:50 0,9 C 80 % 1023,6 hPa 0,0 mm 0,0 km/h (0 Bft) S-SO 202 0 min 0 W/m -2,2 C 0,9 C 0,0 km/h (0 Bft)
16/05/2012 05:00 0,9 C 81 % 1023,6 hPa 0,0 mm 0,0 km/h (0 Bft) S-SO 202 0 min 0 W/m -2,0 C 0,9 C 0,0 km/h (0 Bft)
16/05/2012 05:10 0,8 C 80 % 1023,6 hPa 0,0 mm 0,0 km/h (0 Bft) S-SO 202 0 min 0 W/m -2,2 C 0,8 C 0,0 km/h (0 Bft)
16/05/2012 05:20 0,6 C 80 % 1023,7 hPa 0,0 mm 0,0 km/h (0 Bft) S-SO 202 0 min 0 W/m -2,4 C 0,6 C 0,0 km/h (0 Bft)
16/05/2012 05:30 0,5 C 81 % 1023,7 hPa 0,0 mm 0,0 km/h (0 Bft) S-SO 202 0 min 0 W/m -2,4 C 0,5 C 0,0 km/h (0 Bft)
16/05/2012 05:40 0,5 C 82 % 1023,7 hPa 0,0 mm 0,0 km/h (0 Bft) NE 45 0 min 0 W/m -2,2 C 0,5 C 0,0 km/h (0 Bft)
16/05/2012 05:50 0,6 C 82 % 1023,7 hPa 0,0 mm 0,0 km/h (0 Bft) NE 45 0 min 0 W/m -2,1 C 0,6 C 0,0 km/h (0 Bft)
16/05/2012 06:00 0,5 C 82 % 1023,8 hPa 0,0 mm 0,0 km/h (0 Bft) NE 45 0 min 0 W/m -2,2 C 0,5 C 0,0 km/h (0 Bft)
16/05/2012 06:10 0,3 C 82 % 1024,0 hPa 0,0 mm 0,0 km/h (0 Bft) NE 45 0 min 0 W/m -2,4 C 0,3 C 0,0 km/h (0 Bft)
16/05/2012 06:20 0,2 C 82 % 1024,1 hPa 0,0 mm 0,0 km/h (0 Bft) NE 45 0 min 0 W/m -2,5 C 0,2 C 0,0 km/h (0 Bft)
16/05/2012 06:30 0,1 C 83 % 1024,1 hPa 0,0 mm 0,0 km/h (0 Bft) NE 45 0 min 0 W/m -2,4 C 0,1 C 0,0 km/h (0 Bft)
16/05/2012 06:40 -0,1 C 83 % 1024,3 hPa 0,0 mm 0,0 km/h (0 Bft) NE 45 0 min 0 W/m -2,6 C -0,1 C 0,0 km/h (0 Bft)
16/05/2012 06:50 -0,1 C 83 % 1024,4 hPa 0,0 mm 0,0 km/h (0 Bft) E-NE 67 0 min 0 W/m -2,6 C -0,1 C 0,0 km/h (0 Bft)
16/05/2012 07:00 -0,1 C 83 % 1024,5 hPa 0,0 mm 0,0 km/h (0 Bft) E-NE 67 0 min 0 W/m -2,6 C -0,1 C 0,0 km/h (0 Bft)
16/05/2012 07:10 0,1 C 83 % 1024,5 hPa 0,0 mm 0,0 km/h (0 Bft) E-NE 67 0 min 0 W/m -2,4 C 0,1 C 0,0 km/h (0 Bft)
16/05/2012 07:20 0,5 C 84 % 1024,6 hPa 0,0 mm 0,0 km/h (0 Bft) E-NE 67 0 min 0 W/m -1,9 C 0,5 C 0,0 km/h (0 Bft)
16/05/2012 07:30 0,9 C 85 % 1024,7 hPa 0,0 mm 0,0 km/h (0 Bft) E-NE 67 0 min 0 W/m -1,3 C 0,9 C 0,0 km/h (0 Bft)
16/05/2012 07:40 1,4 C 85 % 1024,7 hPa 0,0 mm 0,0 km/h (0 Bft) E-NE 67 0 min 0 W/m -0,8 C 1,4 C 0,0 km/h (0 Bft)
16/05/2012 07:50 2,0 C 85 % 1024,7 hPa 0,0 mm 0,0 km/h (0 Bft) E-NE 67 0 min 0 W/m -0,3 C 2,0 C 0,0 km/h (0 Bft)
16/05/2012 08:00 2,6 C 86 % 1024,8 hPa 0,0 mm 0,0 km/h (0 Bft) E-NE 67 0 min 0 W/m 0,5 C 2,6 C 0,0 km/h (0 Bft)
16/05/2012 08:10 3,4 C 87 % 1024,9 hPa 0,0 mm 0,0 km/h (0 Bft) E-NE 67 0 min 0 W/m 1,4 C 3,4 C 0,0 km/h (0 Bft)
16/05/2012 08:20 4,1 C 87 % 1024,8 hPa 0,0 mm 0,0 km/h (0 Bft) E-NE 67 0 min 0 W/m 2,1 C 4,1 C 0,0 km/h (0 Bft)
16/05/2012 08:30 4,9 C 87 % 1024,9 hPa 0,0 mm 0,0 km/h (0 Bft) E-NE 67 0 min 0 W/m 2,9 C 4,9 C 0,0 km/h (0 Bft)
16/05/2012 08:40 5,6 C 86 % 1024,9 hPa 0,0 mm 0,7 km/h (0 Bft) NE 45 0 min 0 W/m 3,4 C 5,6 C 3,6 km/h (1 Bft)
16/05/2012 08:50 6,3 C 85 % 1025,0 hPa 0,0 mm 0,0 km/h (0 Bft) NE 45 0 min 0 W/m 4,0 C 6,3 C 3,2 km/h (1 Bft)
16/05/2012 09:00 6,9 C 83 % 1025,0 hPa 0,0 mm 0,0 km/h (0 Bft) N-NE 22 0 min 0 W/m 4,2 C 6,9 C 0,0 km/h (0 Bft)
16/05/2012 09:10 7,5 C 82 % 1025,1 hPa 0,0 mm 0,4 km/h (0 Bft) N 360 0 min 0 W/m 4,6 C 7,5 C 3,2 km/h (1 Bft)
16/05/2012 09:20 8,1 C 80 % 1025,3 hPa 0,0 mm 1,4 km/h (1 Bft) N-NO 337 0 min 0 W/m 4,9 C 8,1 C 4,7 km/h (1 Bft)
16/05/2012 09:30 8,6 C 78 % 1025,3 hPa 0,0 mm 0,0 km/h (0 Bft) N-NE 22 0 min 0 W/m 5,0 C 8,6 C 0,0 km/h (0 Bft)
16/05/2012 09:40 9,2 C 75 % 1025,3 hPa 0,0 mm 1,1 km/h (1 Bft) N-NE 22 0 min 0 W/m 5,0 C 9,2 C 4,3 km/h (1 Bft)
16/05/2012 09:50 9,8 C 74 % 1025,2 hPa 0,0 mm 0,0 km/h (0 Bft) N-NO 337 0 min 0 W/m 5,4 C 9,8 C 0,0 km/h (0 Bft)
16/05/2012 10:00 10,4 C 73 % 1025,2 hPa 0,0 mm 0,0 km/h (0 Bft) N 360 0 min 0 W/m 5,8 C 10,4 C 0,0 km/h (0 Bft)
16/05/2012 10:10 10,9 C 72 % 1025,4 hPa 0,0 mm 0,0 km/h (0 Bft) E-NE 67 0 min 0 W/m 6,1 C 10,9 C 3,2 km/h (1 Bft)
16/05/2012 10:20 11,7 C 69 % 1025,8 hPa 0,0 mm 0,4 km/h (0 Bft) N 360 0 min 0 W/m 6,2 C 11,7 C 6,1 km/h (2 Bft)
16/05/2012 10:30 12,0 C 67 % 1025,8 hPa 0,0 mm 3,6 km/h (1 Bft) N-NE 22 0 min 0 W/m 6,1 C 12,0 C 4,0 km/h (1 Bft)
16/05/2012 10:40 12,0 C 66 % 1025,8 hPa 0,0 mm 1,1 km/h (1 Bft) E-NE 67 0 min 0 W/m 5,8 C 12,0 C 4,0 km/h (1 Bft)
16/05/2012 10:50 12,2 C 64 % 1025,9 hPa 0,0 mm 4,0 km/h (1 Bft) NO 315 0 min 0 W/m 5,6 C 12,2 C 7,2 km/h (2 Bft)
16/05/2012 11:00 12,5 C 65 % 1025,9 hPa 0,0 mm 0,0 km/h (0 Bft) NE 45 0 min 0 W/m 6,1 C 12,5 C 3,2 km/h (1 Bft)
16/05/2012 11:10 12,9 C 64 % 1025,9 hPa 0,0 mm 1,4 km/h (1 Bft) E-NE 67 0 min 0 W/m 6,3 C 12,9 C 4,0 km/h (1 Bft)
16/05/2012 11:20 13,3 C 63 % 1025,8 hPa 0,0 mm 0,4 km/h (0 Bft) N-NO 337 0 min 0 W/m 6,4 C 13,3 C 0,4 km/h (0 Bft)
16/05/2012 11:30 13,5 C 60 % 1025,9 hPa 0,0 mm 2,9 km/h (1 Bft) E-NE 67 0 min 0 W/m 5,9 C 13,5 C 4,0 km/h (1 Bft)
16/05/2012 11:40 13,6 C 59 % 1025,8 hPa 0,0 mm 6,8 km/h (2 Bft) E-NE 67 0 min 0 W/m 5,7 C 13,6 C 11,5 km/h (2 Bft)
16/05/2012 11:50 14,1 C 55 % 1025,8 hPa 0,0 mm 3,6 km/h (1 Bft) NE 45 0 min 0 W/m 5,2 C 14,1 C 6,1 km/h (2 Bft)
16/05/2012 12:00 14,5 C 54 % 1025,8 hPa 0,0 mm 3,6 km/h (1 Bft) E-NE 67 0 min 0 W/m 5,3 C 14,5 C 4,3 km/h (1 Bft)
16/05/2012 12:10 14,9 C 55 % 1025,8 hPa 0,0 mm 8,3 km/h (2 Bft) N 360 0 min 0 W/m 5,9 C 14,9 C 10,8 km/h (2 Bft)
16/05/2012 12:20 15,4 C 52 % 1025,8 hPa 0,0 mm 3,6 km/h (1 Bft) NE 45 0 min 0 W/m 5,6 C 15,4 C 8,3 km/h (2 Bft)
16/05/2012 12:30 15,5 C 51 % 1025,8 hPa 0,0 mm 0,7 km/h (0 Bft) E-NE 67 0 min 0 W/m 5,4 C 15,5 C 4,0 km/h (1 Bft)
16/05/2012 12:40 15,7 C 50 % 1025,9 hPa 0,0 mm 6,1 km/h (2 Bft) N 360 0 min 0 W/m 5,3 C 15,7 C 9,0 km/h (2 Bft)
16/05/2012 12:50 15,6 C 51 % 1025,9 hPa 0,0 mm 4,7 km/h (1 Bft) N-NO 337 0 min 0 W/m 5,5 C 15,6 C 10,1 km/h (2 Bft)
16/05/2012 13:00 15,5 C 50 % 1025,7 hPa 0,0 mm 3,2 km/h (1 Bft) NE 45 0 min 0 W/m 5,1 C 15,5 C 4,0 km/h (1 Bft)
16/05/2012 13:10 15,4 C 48 % 1025,7 hPa 0,0 mm 1,1 km/h (1 Bft) E 90 0 min 0 W/m 4,4 C 15,4 C 4,3 km/h (1 Bft)
16/05/2012 13:20 15,5 C 49 % 1025,7 hPa 0,0 mm 4,7 km/h (1 Bft) N-NE 22 0 min 0 W/m 4,8 C 15,5 C 8,3 km/h (2 Bft)
16/05/2012 13:30 15,8 C 49 % 1025,5 hPa 0,0 mm 7,6 km/h (2 Bft) E-NE 67 0 min 0 W/m 5,1 C 15,8 C 10,1 km/h (2 Bft)
16/05/2012 13:40 15,8 C 49 % 1025,5 hPa 0,0 mm 4,3 km/h (1 Bft) N 360 0 min 0 W/m 5,1 C 15,8 C 7,6 km/h (2 Bft)
16/05/2012 13:50 15,9 C 49 % 1025,4 hPa 0,0 mm 2,5 km/h (1 Bft) NE 45 0 min 0 W/m 5,2 C 15,9 C 3,2 km/h (1 Bft)
16/05/2012 14:00 15,8 C 47 % 1025,3 hPa 0,0 mm 3,2 km/h (1 Bft) NE 45 0 min 0 W/m 4,5 C 15,8 C 4,3 km/h (1 Bft)
16/05/2012 14:10 15,8 C 50 % 1025,3 hPa 0,0 mm 2,5 km/h (1 Bft) E 90 0 min 0 W/m 5,4 C 15,8 C 6,8 km/h (2 Bft)
16/05/2012 14:20 16,2 C 47 % 1025,3 hPa 0,0 mm 3,2 km/h (1 Bft) NE 45 0 min 0 W/m 4,9 C 16,2 C 7,2 km/h (2 Bft)
16/05/2012 14:30 16,4 C 45 % 1025,4 hPa 0,0 mm 5,4 km/h (2 Bft) N-NE 22 0 min 0 W/m 4,4 C 16,4 C 11,5 km/h (2 Bft)
16/05/2012 14:40 16,3 C 45 % 1025,3 hPa 0,0 mm 5,4 km/h (2 Bft) E-NE 67 0 min 0 W/m 4,3 C 16,3 C 9,0 km/h (2 Bft)
16/05/2012 14:50 16,3 C 45 % 1025,3 hPa 0,0 mm 4,3 km/h (1 Bft) NE 45 0 min 0 W/m 4,3 C 16,3 C 8,3 km/h (2 Bft)
16/05/2012 15:00 16,2 C 45 % 1025,2 hPa 0,0 mm 5,0 km/h (1 Bft) N 360 0 min 0 W/m 4,3 C 16,2 C 10,1 km/h (2 Bft)
16/05/2012 15:10 16,4 C 45 % 1025,1 hPa 0,0 mm 4,7 km/h (1 Bft) N-NE 22 0 min 0 W/m 4,4 C 16,4 C 7,2 km/h (2 Bft)
16/05/2012 15:20 16,6 C 45 % 1025,0 hPa 0,0 mm 4,0 km/h (1 Bft) NE 45 0 min 0 W/m 4,6 C 16,6 C 7,2 km/h (2 Bft)
16/05/2012 15:30 16,5 C 45 % 1024,9 hPa 0,0 mm 4,7 km/h (1 Bft) E-NE 67 0 min 0 W/m 4,5 C 16,5 C 7,2 km/h (2 Bft)
16/05/2012 15:40 16,5 C 45 % 1024,8 hPa 0,0 mm 4,3 km/h (1 Bft) NE 45 0 min 0 W/m 4,5 C 16,5 C 7,6 km/h (2 Bft)
16/05/2012 15:50 16,5 C 45 % 1024,7 hPa 0,0 mm 5,0 km/h (1 Bft) NE 45 0 min 0 W/m 4,5 C 16,5 C 7,9 km/h (2 Bft)
16/05/2012 16:00 16,4 C 45 % 1024,5 hPa 0,0 mm 2,9 km/h (1 Bft) N-NE 22 0 min 0 W/m 4,4 C 16,4 C 7,9 km/h (2 Bft)
16/05/2012 16:10 16,2 C 44 % 1024,4 hPa 0,0 mm 7,2 km/h (2 Bft) N-NE 22 0 min 0 W/m 3,9 C 16,2 C 10,4 km/h (2 Bft)
16/05/2012 16:20 16,2 C 45 % 1024,3 hPa 0,0 mm 3,2 km/h (1 Bft) N-NE 22 0 min 0 W/m 4,3 C 16,2 C 4,3 km/h (1 Bft)
16/05/2012 16:30 16,5 C 45 % 1024,0 hPa 0,0 mm 6,1 km/h (2 Bft) N-NE 22 0 min 0 W/m 4,5 C 16,5 C 7,6 km/h (2 Bft)
16/05/2012 16:40 16,6 C 45 % 1024,0 hPa 0,0 mm 3,6 km/h (1 Bft) N-NE 22 0 min 0 W/m 4,6 C 16,6 C 7,9 km/h (2 Bft)
16/05/2012 16:50 16,6 C 45 % 1023,8 hPa 0,0 mm 6,1 km/h (2 Bft) E-NE 67 0 min 0 W/m 4,6 C 16,6 C 10,8 km/h (2 Bft)
16/05/2012 17:00 16,8 C 45 % 1023,8 hPa 0,0 mm 4,0 km/h (1 Bft) E-NE 67 0 min 0 W/m 4,8 C 16,8 C 7,2 km/h (2 Bft)
16/05/2012 17:10 16,8 C 42 % 1023,6 hPa 0,0 mm 3,6 km/h (1 Bft) NE 45 0 min 0 W/m 3,8 C 16,8 C 3,6 km/h (1 Bft)
16/05/2012 17:20 16,6 C 42 % 1023,5 hPa 0,0 mm 9,7 km/h (2 Bft) N-NE 22 0 min 0 W/m 3,6 C 16,6 C 19,8 km/h (3 Bft)
16/05/2012 17:30 16,4 C 42 % 1023,4 hPa 0,0 mm 8,3 km/h (2 Bft) E-SE 112 0 min 0 W/m 3,5 C 16,4 C 11,2 km/h (2 Bft)
16/05/2012 17:40 16,4 C 43 % 1023,4 hPa 0,0 mm 12,6 km/h (3 Bft) SE 135 0 min 0 W/m 3,8 C 16,4 C 16,6 km/h (3 Bft)
16/05/2012 17:50 16,2 C 43 % 1023,4 hPa 0,0 mm 4,7 km/h (1 Bft) N-NE 22 0 min 0 W/m 3,6 C 16,2 C 7,6 km/h (2 Bft)
16/05/2012 18:00 16,0 C 44 % 1023,2 hPa 0,0 mm 0,7 km/h (0 Bft) NE 45 0 min 0 W/m 3,8 C 16,0 C 3,6 km/h (1 Bft)
16/05/2012 18:10 16,0 C 43 % 1023,1 hPa 0,0 mm 5,8 km/h (2 Bft) N 360 0 min 0 W/m 3,4 C 16,0 C 7,9 km/h (2 Bft)
16/05/2012 18:20 15,9 C 43 % 1023,1 hPa 0,0 mm 5,0 km/h (1 Bft) N-NE 22 0 min 0 W/m 3,3 C 15,9 C 12,2 km/h (2 Bft)
16/05/2012 18:30 15,9 C 43 % 1023,2 hPa 0,0 mm 5,4 km/h (2 Bft) E-SE 112 0 min 0 W/m 3,3 C 15,9 C 8,6 km/h (2 Bft)
16/05/2012 18:40 15,9 C 42 % 1023,0 hPa 0,0 mm 9,0 km/h (2 Bft) NE 45 0 min 0 W/m 3,0 C 15,9 C 12,2 km/h (2 Bft)
16/05/2012 18:50 15,8 C 42 % 1023,0 hPa 0,0 mm 5,0 km/h (1 Bft) N-NE 22 0 min 0 W/m 2,9 C 15,8 C 9,7 km/h (2 Bft)
16/05/2012 19:00 15,8 C 43 % 1022,9 hPa 0,0 mm 5,8 km/h (2 Bft) E-NE 67 0 min 0 W/m 3,3 C 15,8 C 5,8 km/h (2 Bft)
16/05/2012 19:10 15,6 C 43 % 1022,8 hPa 0,0 mm 3,2 km/h (1 Bft) E-NE 67 0 min 0 W/m 3,1 C 15,6 C 9,7 km/h (2 Bft)
16/05/2012 19:20 15,4 C 43 % 1022,7 hPa 0,0 mm 7,6 km/h (2 Bft) E 90 0 min 0 W/m 2,9 C 15,4 C 10,4 km/h (2 Bft)
16/05/2012 19:30 15,2 C 43 % 1022,7 hPa 0,0 mm 2,9 km/h (1 Bft) E-NE 67 0 min 0 W/m 2,7 C 15,2 C 4,0 km/h (1 Bft)
16/05/2012 19:40 15,1 C 43 % 1022,8 hPa 0,0 mm 4,3 km/h (1 Bft) E-NE 67 0 min 0 W/m 2,6 C 15,1 C 4,3 km/h (1 Bft)
16/05/2012 19:50 14,9 C 44 % 1022,7 hPa 0,0 mm 3,6 km/h (1 Bft) N 360 0 min 0 W/m 2,8 C 14,9 C 6,8 km/h (2 Bft)
16/05/2012 20:00 14,8 C 44 % 1022,7 hPa 0,0 mm 3,2 km/h (1 Bft) NE 45 0 min 0 W/m 2,7 C 14,8 C 4,0 km/h (1 Bft)
16/05/2012 20:10 14,4 C 45 % 1022,7 hPa 0,0 mm 2,5 km/h (1 Bft) NE 45 0 min 0 W/m 2,6 C 14,4 C 6,1 km/h (2 Bft)
16/05/2012 20:20 13,9 C 46 % 1022,6 hPa 0,0 mm 3,2 km/h (1 Bft) NE 45 0 min 0 W/m 2,5 C 13,9 C 4,0 km/h (1 Bft)
16/05/2012 20:30 13,4 C 47 % 1022,7 hPa 0,0 mm 5,8 km/h (2 Bft) NE 45 0 min 0 W/m 2,3 C 13,4 C 9,0 km/h (2 Bft)
16/05/2012 20:40 13,0 C 48 % 1022,6 hPa 0,0 mm 2,9 km/h (1 Bft) N 360 0 min 0 W/m 2,3 C 13,0 C 7,6 km/h (2 Bft)
16/05/2012 20:50 12,6 C 49 % 1022,6 hPa 0,0 mm 3,2 km/h (1 Bft) NE 45 0 min 0 W/m 2,2 C 12,6 C 4,3 km/h (1 Bft)
16/05/2012 21:00 12,2 C 50 % 1022,5 hPa 0,0 mm 2,2 km/h (1 Bft) E-NE 67 0 min 0 W/m 2,1 C 12,2 C 4,3 km/h (1 Bft)
16/05/2012 21:10 11,8 C 51 % 1022,4 hPa 0,0 mm 3,6 km/h (1 Bft) E-NE 67 0 min 0 W/m 2,0 C 11,8 C 9,4 km/h (2 Bft)
16/05/2012 21:20 11,5 C 51 % 1022,4 hPa 0,0 mm 1,4 km/h (1 Bft) N-NE 22 0 min 0 W/m 1,7 C 11,5 C 7,2 km/h (2 Bft)
16/05/2012 21:30 11,2 C 52 % 1022,4 hPa 0,0 mm 5,4 km/h (2 Bft) NE 45 0 min 0 W/m 1,7 C 11,2 C 5,4 km/h (2 Bft)
16/05/2012 21:40 10,8 C 53 % 1022,4 hPa 0,0 mm 2,5 km/h (1 Bft) NE 45 0 min 0 W/m 1,6 C 10,8 C 4,3 km/h (1 Bft)
16/05/2012 21:50 10,5 C 53 % 1022,4 hPa 0,0 mm 1,4 km/h (1 Bft) NE 45 0 min 0 W/m 1,3 C 10,5 C 3,2 km/h (1 Bft)
16/05/2012 22:00 10,1 C 55 % 1022,4 hPa 0,0 mm 2,9 km/h (1 Bft) NE 45 0 min 0 W/m 1,5 C 10,1 C 2,9 km/h (1 Bft)
16/05/2012 22:10 9,8 C 55 % 1022,4 hPa 0,0 mm 1,8 km/h (1 Bft) E-NE 67 0 min 0 W/m 1,2 C 9,8 C 3,6 km/h (1 Bft)
16/05/2012 22:20 9,6 C 56 % 1022,5 hPa 0,0 mm 0,7 km/h (0 Bft) NE 45 0 min 0 W/m 1,3 C 9,6 C 3,6 km/h (1 Bft)
16/05/2012 22:30 9,4 C 57 % 1022,5 hPa 0,0 mm 3,2 km/h (1 Bft) NE 45 0 min 0 W/m 1,3 C 9,4 C 6,5 km/h (2 Bft)
16/05/2012 22:40 9,2 C 57 % 1022,3 hPa 0,0 mm 1,1 km/h (1 Bft) NE 45 0 min 0 W/m 1,1 C 9,2 C 1,1 km/h (1 Bft)
_ Min-Heure 07:00 18:50 22:40 - 11:00 - - - - 07:00 07:00 10:00
Minimum _ -0,1 C 42 % 1022,3 hPa - 0,0 km/h (0 Bft) - - - - -2,6 C -0,1 C 0,0 km/h (0 Bft)
_ Max-Heure 17:10 08:30 12:50 22:40 17:40 - - 22:40 22:40 11:20 17:10 17:20
Maximum _ 16,8 C 87 % 1025,9 hPa 0,0 mm 12,6 km/h
SE (3 Bft)
- - 0 min 0 W/m 6,4 C 16,8 C 19,8 km/h
N-NE (3 Bft)
Moyenne _ 9,4 C 62 % 1024,1 hPa #0,0 mm 2,3 km/h (1 Bft) NE - #0 min. 0 W/m 2,0 C 9,4 C 4,2 km/h (1 Bft)
Saint Bonnet de Bellac- Haute Vienne - France